Albany, GA

11:55 PM EDT on May 22, 2017 (GMT -0400)
Southwest Georgia Regional

Weather History for KABY - October, 2011

Change the Weather History Date:

Saturday, October 29, 2011

  Actual Average Record
Temperature  
Mean Temperature 59 °F 64 °F  
Max Temperature 66 °F 77 °F 89 °F (1940)
Min Temperature 48 °F 51 °F 30 °F (1968)
Degree Days  
Heating Degree Days 6 4  
Month to date heating degree days 40  
Since 1 July heating degree days 41  
Cooling Degree Days 0 3  
Month to date cooling degree days 142  
Year to date cooling degree days 2498  
Growing Degree Days 9 (Base 50)    
Moisture  
Dew Point 42 °F    
Average Humidity 58    
Maximum Humidity 88    
Minimum Humidity 23    
Precipitation  
Precipitation 0.00 in 0.08 in 0.65 in (2002)
Month to date precipitation 2.43  
Year to date precipitation 41.47  
Sea Level Pressure  
Sea Level Pressure 30.03 in    
Wind  
Wind Speed 10 mph (NNW)    
Max Wind Speed 17 mph    
Max Gust Speed 24 mph    
Visibility 10 miles    
Events      
T = Trace of Precipitation, MM = Missing Value Source: NWS Daily Summary

Daily Weather History Graph

Daily Weather History Graph

Search for Another Location

Airport or City:

Trip Planner

Search our weather history database for the weather conditions in past years. The results will help you decide how hot, cold, wet, or windy it might be!

Date:

Astronomy

Oct. 29, 2011 Rise Set
Actual Time 7:50 AM EDT 6:50 PM EDT
Civil Twilight 7:25 AM EDT 7:15 PM EDT
Nautical Twilight 6:56 AM EDT 7:43 PM EDT
Astronomical Twilight 6:28 AM EDT 8:12 PM EDT
Moon 10:59 AM EDT (10/29) 9:24 PM EDT (10/29)
Length of Visible Light 11h 50m
Length of Day
11h 00m
Waxing Crescent, 11% of the Moon is Illuminated
Oct 29
Waxing Crescent
Nov 2
First Quarter
Nov 10
Full
Nov 18
Last Quarter
Nov 25
New

Hourly Weather History & Observations

Time (EDT) Temp. Dew Point Humidity Pressure Visibility Wind Dir Wind Speed Gust Speed Precip Events Conditions
12:53 AM 63.0 °F 57.0 °F 81% 29.92 in 10.0 mi WNW 6.9 mph - N/A   Clear
1:53 AM 62.6 °F 57.2 °F 82% 29.93 in 9.0 mi WNW 8.1 mph - N/A   Partly Cloudy
2:16 AM 62.6 °F 59.0 °F 88% 29.93 in 8.0 mi NW 6.9 mph - N/A   Mostly Cloudy
2:53 AM 64.0 °F 59.0 °F 84% 29.94 in 8.0 mi NW 9.2 mph - N/A   Overcast
3:53 AM 63.0 °F 55.0 °F 75% 29.95 in 10.0 mi NNW 12.7 mph 20.7 mph N/A   Overcast
4:53 AM 61.0 °F 54.0 °F 78% 29.96 in 10.0 mi NW 12.7 mph - N/A   Overcast
5:53 AM 60.8 °F 53.6 °F 77% 29.97 in 10.0 mi NNW 8.1 mph - N/A   Overcast
6:20 AM 57.2 °F 50.0 °F 77% 29.98 in 10.0 mi NNW 13.8 mph 23.0 mph N/A   Overcast
6:53 AM 55.9 °F 48.0 °F 75% 30.00 in 10.0 mi North 12.7 mph - N/A   Overcast
7:13 AM 55.4 °F 48.2 °F 77% 30.01 in 10.0 mi North 16.1 mph 21.9 mph N/A   Overcast
7:33 AM 55.4 °F 48.2 °F 77% 30.01 in 10.0 mi NNW 11.5 mph - N/A   Overcast
7:53 AM 55.0 °F 48.0 °F 77% 30.02 in 10.0 mi North 10.4 mph - N/A   Overcast
8:53 AM 55.0 °F 46.9 °F 74% 30.03 in 10.0 mi North 10.4 mph 18.4 mph N/A   Overcast
9:00 AM 55.4 °F 46.4 °F 72% 30.03 in 10.0 mi North 13.8 mph 19.6 mph N/A   Overcast
9:53 AM 55.0 °F 46.0 °F 72% 30.06 in 10.0 mi NNW 10.4 mph - N/A   Overcast
10:53 AM 55.0 °F 45.0 °F 69% 30.08 in 10.0 mi North 12.7 mph 17.3 mph N/A   Overcast
11:53 AM 59.0 °F 44.1 °F 58% 30.08 in 10.0 mi NNW 9.2 mph - N/A   Scattered Clouds
12:53 PM 63.0 °F 39.0 °F 41% 30.06 in 10.0 mi NNW 13.8 mph 20.7 mph N/A   Clear
1:53 PM 64.9 °F 35.1 °F 33% 30.04 in 10.0 mi NNW 17.3 mph 23.0 mph N/A   Clear
2:53 PM 64.9 °F 30.9 °F 28% 30.03 in 10.0 mi North 11.5 mph 21.9 mph N/A   Clear
3:53 PM 66.9 °F 30.0 °F 25% 30.02 in 10.0 mi North 17.3 mph 24.2 mph N/A   Clear
4:53 PM 66.9 °F 28.0 °F 23% 30.03 in 10.0 mi NNW 11.5 mph 19.6 mph N/A   Clear
5:53 PM 64.9 °F 27.0 °F 24% 30.04 in 10.0 mi North 9.2 mph - N/A   Clear
6:53 PM 61.0 °F 27.0 °F 27% 30.06 in 10.0 mi North 6.9 mph - N/A   Clear
7:53 PM 57.2 °F 28.4 °F 33% 30.08 in 10.0 mi North 5.8 mph - N/A   Clear
8:53 PM 54.0 °F 28.9 °F 38% 30.12 in 10.0 mi NNW 3.5 mph - N/A   Clear
9:53 PM 54.0 °F 28.9 °F 38% 30.14 in 10.0 mi North 6.9 mph - N/A   Clear
10:53 PM 52.0 °F 30.0 °F 43% 30.17 in 10.0 mi North 4.6 mph - N/A   Clear
11:53 PM 48.9 °F 30.9 °F 50% 30.17 in 10.0 mi North 4.6 mph - N/A   Clear